Theta_e
366 363 363 365 365 364 362 356 349 347 349 345 343 345 350 353 362 371 360 355 353 356 358 360 366 366 357 359 365 368 363 361 362 359 360 360 355 351 347 348 350 354
365 364 367 360 365 370 370 364 357 352 351 358 356 350 350 362 354 352 351 351 353 355 358 356 359 361 363 359 362 366 370 364 362 360 360 360 358 354 350 352 358 360
358 359 356 355 352 356 364 363 365 364 356 355 356 363 347 349 348 354 354 356 358 351 365 362 368 366 361 363 365 369 367 369 365 362 364 361 360 358 365 361 357 358
358 358 354 353 355 356 351 352 358 362 359 356 351 346 343 341 351 356 363 363 362 360 359 360 364 355 352 350 360 367 360 361 365 369 363 362 365 363 362 362 358 356
348 352 354 353 358 372 366 351 348 346 348 353 350 348 346 350 355 358 360 360 363 360 360 359 359 357 361 366 366 367 371 366 359 355 359 361 365 364 363 360 358 357
348 352 362 373 367 363 354 347 345 347 347 343 342 343 346 363 357 365 369 359 352 356 359 359 360 359 359 356 359 361 363 354 356 357 358 361 361 361 360 358 355 353
343 357 358 377 374 370 362 352 349 348 344 345 359 359 360 360 363 370 371 369 366 366 360 366 364 363 363 371 370 366 352 354 355 352 352 353 355 354 355 355 355 355
365 367 378 383 374 354 353 352 350 350 353 355 351 373 364 359 376 363 370 368 363 366 366 363 370 373 365 371 370 365 356 355 352 347 346 349 352 352 353 355 357 358
373 376 372 373 364 361 352 352 352 352 360 360 357 350 368 366 366 365 368 369 368 368 368 366 370 365 363 366 363 361 358 355 352 348 346 348 349 352 356 358 357 356
376 376 372 368 368 364 367 358 355 357 374 374 372 365 360 367 366 366 369 369 362 361 362 368 366 365 363 364 362 361 358 356 355 354 354 354 353 353 353 349 345 345
372 373 371 368 361 369 367 367 372 371 373 369 371 367 366 365 364 365 365 366 357 358 358 363 363 363 363 359 361 362 360 357 357 355 354 353 349 349 350 347 346 348
374 373 368 368 369 367 366 369 373 371 369 369 368 367 367 365 364 360 358 357 358 357 356 359 361 361 358 359 359 358 358 358 357 353 351 351 351 350 350 349 350 348
373 374 377 374 374 370 368 369 368 367 366 365 365 365 365 364 362 357 357 355 358 356 353 353 354 353 351 351 351 351 351 350 350 347 346 343 342 341 340 341 342 342
373 370 370 371 371 369 367 365 366 365 364 365 364 361 360 358 356 355 354 353 352 352 352 353 350 343 342 340 341 341 342 343 342 341 341 340 340 340 339 338 338 339
367 367 367 367 367 366 364 364 363 363 362 361 360 358 353 352 354 351 351 351 351 351 351 348 341 338 335 334 333 334 334 335 336 336 337 338 337 337 338 338 338 338
367 366 365 364 363 362 362 361 361 358 358 357 355 354 353 353 353 351 351 349 348 348 347 340 336 332 335 333 332 330 329 329 330 332 334 335 335 336 336 338 337 336
363 361 361 359 360 359 359 357 355 354 353 353 351 351 351 351 350 348 347 346 345 343 341 333 330 329 328 327 327 328 327 327 327 329 331 331 332 333 333 334 335 336
359 358 358 358 357 355 353 353 352 351 350 349 347 346 348 346 346 344 344 343 341 342 338 331 327 327 325 325 325 324 327 325 326 326 327 329 330 330 331 331 332 333
359 357 356 354 352 351 350 350 348 347 345 344 343 343 345 343 343 341 341 341 341 340 337 330 325 326 324 324 323 323 325 327 325 325 326 326 327 327 329 330 331 332
355 352 349 349 349 349 348 346 345 344 343 343 344 344 342 340 339 340 340 340 339 337 337 329 326 325 324 323 322 322 323 326 324 323 324 324 325 325 325 327 328 328
350 349 347 347 347 346 344 343 342 342 341 341 341 339 339 339 339 339 337 336 335 333 332 329 325 324 323 322 321 321 323 324 322 322 322 323 324 325 325 326 326 327
347 345 345 344 344 343 341 340 340 339 338 339 341 341 340 340 338 339 335 332 332 331 328 328 325 322 322 321 320 320 322 321 320 320 320 321 321 323 324 325 326 327
346 344 342 342 341 340 338 338 338 337 338 340 339 340 337 334 333 332 334 331 330 329 328 326 326 322 320 319 319 319 321 319 319 319 319 319 320 322 324 325 325 326
344 343 341 339 339 337 336 337 338 338 338 339 337 334 331 332 333 331 331 331 329 328 327 326 326 325 319 318 317 318 320 318 318 318 318 319 320 322 323 323 324 327
343 342 339 338 336 336 336 336 336 336 336 337 334 333 332 331 329 328 329 329 329 328 328 327 326 326 319 317 317 317 318 318 318 317 317 318 319 319 321 322 323 324
340 339 338 337 336 336 337 337 337 336 336 335 334 331 329 330 330 328 328 327 329 329 327 327 326 325 323 315 315 316 317 319 318 317 317 317 318 319 319 320 321 323
Wind_Speed
8 8 9 8 7 7 6 6 9 9 8 9 9 7 8 9 4 1 3 5 6 7 9 6 4 5 7 7 7 6 6 5 4 5 5 4 4 5 7 7 7 3
7 7 5 7 6 7 6 7 8 8 5 5 4 4 5 3 10 9 8 8 9 10 8 9 9 8 8 7 7 6 5 5 6 6 6 6 6 7 9 5 5 4
10 8 9 9 7 5 7 8 6 5 4 7 4 3 5 6 9 11 8 6 4 5 2 2 2 3 4 4 4 4 3 4 5 6 5 6 6 5 2 4 3 4
10 9 10 10 7 7 6 4 7 7 7 8 8 8 7 10 2 6 3 3 2 3 3 3 3 4 4 7 7 4 5 6 6 3 7 7 6 2 2 2 2 3
11 11 10 8 5 4 5 7 9 8 6 7 8 9 10 9 5 2 4 4 4 4 4 4 6 6 4 3 2 3 3 1 7 4 4 4 5 3 3 5 7 8
10 7 5 4 6 6 5 8 10 10 10 10 11 9 7 4 4 1 2 3 5 5 2 2 2 3 4 6 4 5 2 4 4 5 7 8 7 7 5 5 5 7
8 5 4 2 4 5 4 8 8 9 7 7 3 2 7 5 2 1 3 1 1 2 1 2 2 3 3 2 3 3 5 3 2 1 3 5 4 5 4 5 7 8
5 6 3 2 3 5 7 8 7 5 5 5 5 2 2 2 1 1 2 2 1 1 2 3 2 3 3 2 2 4 2 1 4 7 7 8 6 8 8 6 7 9
4 3 1 2 2 3 6 7 4 4 3 6 7 8 4 4 5 3 5 4 3 2 2 3 3 4 6 4 3 4 2 3 4 7 9 9 7 8 8 6 6 6
4 2 2 2 2 2 3 4 6 3 8 6 7 6 5 3 5 4 3 3 3 3 3 3 2 4 4 5 3 1 0 3 3 3 4 5 6 7 7 6 7 9
3 2 2 2 2 1 1 1 5 6 6 8 6 7 7 5 2 2 1 2 4 4 6 4 3 3 4 4 3 2 3 3 3 3 4 4 8 9 9 9 9 9
4 3 1 1 1 1 2 7 5 4 3 3 5 4 4 3 4 5 6 7 8 7 7 8 7 5 3 4 5 6 4 4 3 4 5 5 5 7 8 8 6 8
3 4 4 4 5 7 6 5 5 5 6 5 5 5 4 5 4 3 2 6 7 7 8 8 7 8 9 9 9 9 9 9 5 3 3 4 6 8 9 9 9 9
6 6 6 6 5 5 5 5 3 5 5 6 6 6 5 7 7 7 6 6 6 5 6 4 7 10 9 9 9 9 9 8 9 9 8 7 6 7 8 9 10 10
6 6 5 5 4 4 4 5 5 4 4 3 4 4 5 6 5 6 6 5 5 4 4 6 10 9 8 9 8 9 9 9 10 9 9 9 8 8 8 8 9 10
6 5 6 6 6 4 4 4 4 4 5 6 6 5 5 5 5 6 5 5 4 5 5 9 8 7 11 16 14 9 8 8 8 8 8 8 9 8 8 8 8 10
6 6 6 6 6 5 4 6 7 6 6 6 5 5 4 4 4 4 4 4 4 4 5 9 8 7 14 13 13 16 10 8 8 8 8 8 9 9 9 9 9 9
7 6 5 5 4 6 8 7 5 6 5 5 5 5 5 4 4 4 3 5 5 7 7 8 8 10 12 14 14 14 15 9 8 8 8 7 8 8 8 9 9 9
6 5 6 7 7 6 5 5 6 5 5 5 5 5 4 4 4 5 7 6 7 6 7 8 8 11 12 13 12 13 14 13 7 8 8 8 9 9 9 9 8 8
8 9 7 6 6 6 6 5 6 5 6 5 4 4 4 5 7 7 7 6 6 6 6 8 7 9 9 12 14 16 17 14 8 9 9 9 9 9 9 10 9 9
7 6 6 6 6 6 5 5 5 5 5 4 5 6 6 6 6 6 5 8 8 8 6 7 6 10 13 14 14 13 15 13 9 9 8 8 9 9 10 10 10 10
7 6 6 6 6 6 6 5 5 6 6 5 5 5 5 4 3 5 8 8 8 8 8 7 6 11 12 12 14 14 17 10 9 9 9 9 9 10 9 9 9 9
7 7 7 6 5 6 6 6 6 6 5 4 4 4 5 7 8 8 6 7 8 7 7 7 6 9 12 12 12 14 12 9 9 8 8 9 9 9 8 8 8 9
7 6 6 6 6 6 6 6 5 3 3 3 5 7 8 7 6 7 7 7 8 8 8 7 7 8 11 10 13 14 14 10 8 8 9 9 8 9 8 8 10 17
6 6 6 7 6 6 5 5 4 3 3 6 6 5 6 6 6 6 6 6 6 6 12 9 6 6 10 12 13 14 12 8 8 7 8 9 9 9 9 9 9 10
6 6 7 7 6 5 4 3 3 4 6 4 5 4 4 4 5 5 6 6 5 5 6 7 7 7 9 13 14 15 13 9 7 8 8 10 10 10 10 9 8 8
Wind_Direction
208 207 208 207 217 217 233 235 235 235 222 237 246 233 204 208 214 212 276 267 233 226 215 214 218 220 221 229 234 229 225 240 251 255 254 252 254 253 242 227 219 157
211 214 212 219 201 196 209 233 252 252 259 274 269 277 280 163 189 205 212 226 234 233 218 215 214 217 220 229 230 215 197 213 232 235 238 236 233 242 248 238 135 176
217 219 221 228 238 217 196 208 226 237 272 284 303 309 289 254 215 202 188 198 250 279 311 299 239 193 199 258 252 200 199 220 239 249 239 244 246 247 80 87 175 197
209 219 224 223 212 224 239 238 205 203 217 224 229 246 244 262 316 117 164 187 195 229 261 290 301 292 251 233 239 220 231 232 237 314 339 323 341 59 124 125 185 214
218 211 212 219 228 206 197 227 260 261 243 218 224 210 219 226 226 237 158 185 186 192 205 221 245 255 278 277 249 244 195 183 65 88 200 199 207 199 174 202 205 202
214 219 215 197 200 208 220 246 243 233 225 239 247 255 265 187 140 133 274 248 224 214 201 247 278 313 287 280 266 255 115 119 170 179 204 201 184 183 204 208 231 236
246 198 185 238 164 142 203 235 258 271 284 291 332 2 49 16 14 119 239 244 16 352 266 216 215 249 274 300 311 83 112 138 121 109 6 334 323 301 261 256 249 248
283 315 318 120 163 190 215 242 259 286 335 338 307 102 107 79 64 15 329 71 316 237 292 297 261 252 295 317 337 85 73 95 86 33 327 290 288 275 259 243 241 235
240 232 322 324 254 217 238 246 230 268 318 340 324 276 70 52 41 16 42 30 12 339 289 297 332 7 330 352 14 81 126 190 174 186 218 241 248 256 258 246 248 258
208 186 205 246 263 260 256 270 316 2 40 29 13 27 20 48 40 32 42 40 344 317 307 290 348 42 12 16 27 89 312 260 232 228 253 277 308 313 326 340 312 299
181 181 197 250 277 307 249 172 69 45 49 44 25 31 24 360 10 32 339 270 296 336 356 360 15 2 7 337 295 262 268 290 290 270 277 286 272 277 275 286 271 256
151 160 187 62 54 61 6 51 66 73 51 69 60 42 19 13 15 13 349 354 9 354 356 0 358 13 3 327 322 314 303 287 304 319 320 317 302 285 286 285 280 277
117 80 73 86 52 46 51 65 41 54 50 35 32 20 5 16 10 20 27 5 19 17 7 7 356 12 15 8 2 4 2 357 360 8 359 350 338 338 327 321 310 305
81 81 60 42 62 58 50 51 43 50 39 35 41 13 30 37 22 12 26 31 19 9 4 342 34 42 26 18 14 10 2 355 351 346 341 332 332 324 319 310 307 301
74 79 86 89 73 60 63 61 52 57 69 46 33 25 28 33 30 26 25 16 20 358 354 32 60 43 35 24 15 10 3 357 350 341 332 324 317 308 301 296 294 297
86 86 79 65 65 81 73 65 51 37 44 52 38 42 30 16 10 22 16 20 354 19 9 68 58 53 40 41 34 20 7 353 339 332 325 320 316 310 304 304 304 300
87 77 72 69 61 57 80 67 39 37 38 37 43 36 27 22 38 19 23 12 6 13 36 74 59 43 46 40 30 25 9 350 335 322 319 319 312 304 301 297 297 301
83 86 86 89 82 48 35 42 59 50 47 42 36 27 32 21 35 21 9 12 15 9 57 80 67 46 45 38 25 18 4 348 330 327 321 313 309 307 306 309 308 301
122 99 74 64 56 58 61 61 55 52 47 40 26 23 27 20 13 17 30 25 23 11 58 77 66 44 45 36 24 11 359 352 342 333 328 328 328 324 318 316 314 313
64 69 72 68 72 70 69 58 55 51 49 29 15 14 34 16 25 25 25 34 28 19 51 76 59 43 50 36 22 11 0 350 344 340 332 325 324 323 321 318 319 317
83 87 81 74 68 71 66 57 53 47 47 24 24 25 23 30 26 27 29 34 26 24 20 77 52 48 41 34 20 5 354 352 345 340 329 325 322 320 318 317 316 312
86 84 76 75 74 65 58 50 50 45 29 20 30 34 36 12 17 46 49 45 30 23 18 16 73 50 44 33 23 7 358 351 345 336 332 326 325 323 319 319 315 317
83 83 82 76 68 65 55 51 43 35 42 357 23 50 39 29 42 35 35 45 32 23 16 6 26 52 46 37 22 9 2 352 345 340 334 333 328 322 316 315 315 312
82 81 84 75 66 59 57 59 57 49 34 23 8 46 46 24 22 36 28 34 25 21 8 18 4 61 52 41 22 20 8 358 347 341 336 332 325 318 316 312 312 315
87 88 79 69 61 61 63 62 45 53 46 45 35 45 46 45 18 32 32 30 31 17 11 11 8 28 58 34 22 18 13 351 345 335 332 331 324 318 315 313 309 313
85 80 77 83 86 81 70 68 71 44 55 54 49 41 50 49 37 42 41 34 21 21 19 15 18 11 41 31 19 10 0 352 346 340 334 328 322 322 322 315 308 312